Pontianak, Indonesia

6:53 PM WIB on May 29, 2017 (GMT +0700)
Supadio

Weather History for WIOO - April, 2013

Change the Weather History Date:

Friday, April 12, 2013

  Actual Average Record
Temperature  
Mean Temperature 84 °F -  
Max Temperature 93 °F - - ()
Min Temperature 76 °F - - ()
Cooling Degree Days 20    
Growing Degree Days 34 (Base 50)    
Moisture  
Dew Point 76 °F    
Average Humidity 73    
Maximum Humidity 100    
Minimum Humidity 48    
Precipitation  
Precipitation 0.00 in - - ()
Sea Level Pressure  
Sea Level Pressure 29.76 in    
Wind  
Wind Speed 3 mph ()    
Max Wind Speed 13 mph    
Max Gust Speed -    
Visibility 5.1 miles    
Events      
T = Trace of Precipitation, MM = Missing Value Source: Averaged Metar Reports

Daily Weather History Graph

Daily Weather History Graph

Search for Another Location

Airport or City:

Trip Planner

Search our weather history database for the weather conditions in past years. The results will help you decide how hot, cold, wet, or windy it might be!

Date:

Astronomy

Apr. 12, 2013 Rise Set
Actual Time 5:40 AM WIB 5:46 PM WIB
Civil Twilight 5:19 AM WIB 6:07 PM WIB
Nautical Twilight 4:54 AM WIB 6:31 PM WIB
Astronomical Twilight 4:30 AM WIB 6:55 PM WIB
Moon 6:53 AM WIB (4/12) 7:15 PM WIB (4/12)
Length of Visible Light 12h 48m
Length of Day
12h 06m
Waxing Crescent, 3% of the Moon is Illuminated
Apr 12
Waxing Crescent
Apr 18
First Quarter
Apr 26
Full
May 2
Last Quarter
May 10
New

Hourly Weather History & Observations

Time (WIB) Temp. Heat Index Dew Point Humidity Pressure Visibility Wind Dir Wind Speed Gust Speed Precip Events Conditions
1:00 AM 78 °F - 77 °F 96% 29.78 in 4 mi Calm Calm - -   Partly Cloudy
4:00 AM 77 °F - 77 °F 99% 29.77 in 1 mi Calm Calm - -   Mist
5:30 AM 77.0 °F - 77.0 °F 100% 29.77 in 3.7 mi Calm Calm - N/A   Scattered Clouds
6:00 AM 77.0 °F - 77.0 °F 100% 29.77 in - North - - N/A   Scattered Clouds
7:00 AM 78 °F - 77 °F 94% 29.79 in 5 mi Calm Calm - -   Partly Cloudy
8:30 AM 82.4 °F 92.4 °F 78.8 °F 89% 29.80 in 6.2 mi Calm Calm - N/A   Scattered Clouds
9:00 AM 86.0 °F 96.9 °F 77.0 °F 74% 29.80 in 6.2 mi Calm Calm - N/A   Mostly Cloudy
10:00 AM 87 °F - 76 °F 64% 29.83 in 6 mi North 3.5 mph - -   Mostly Cloudy
10:00 AM 87.8 °F 99.7 °F 77.0 °F 70% 29.80 in 6.2 mi North 3.5 mph - N/A   Mostly Cloudy
10:30 AM 87.8 °F 99.7 °F 77.0 °F 70% 29.80 in 6.2 mi North 3.5 mph - N/A   Mostly Cloudy
11:00 AM 89.6 °F 102.2 °F 77.0 °F 66% 29.80 in 6.2 mi Calm Calm - N/A   Mostly Cloudy
11:30 AM 89.6 °F 102.2 °F 77.0 °F 66% 29.77 in 0.4 mi North - - N/A   Mostly Cloudy
12:30 PM 91.4 °F 105.1 °F 77.0 °F 63% 29.74 in 6.2 mi North 3.5 mph - N/A   Mostly Cloudy
1:00 PM 92 °F - 74 °F 48% 29.75 in 6 mi North 5.8 mph - -   Mostly Cloudy
1:00 PM 91.4 °F 102.5 °F 75.2 °F 59% 29.74 in 6.2 mi North 5.8 mph - N/A   Mostly Cloudy
1:30 PM 93.2 °F 105.0 °F 75.2 °F 56% 29.74 in 6.2 mi North 12.7 mph - N/A   Mostly Cloudy
2:00 PM 93.2 °F 105.0 °F 75.2 °F 56% 29.71 in 6.2 mi North 10.4 mph - N/A   Mostly Cloudy
2:30 PM 93.2 °F 105.0 °F 75.2 °F 56% 29.68 in 6.2 mi North 9.2 mph - N/A   Mostly Cloudy
3:00 PM 93.2 °F 105.0 °F 75.2 °F 56% 29.68 in 6.2 mi North 9.2 mph - N/A   Scattered Clouds
3:30 PM 91.4 °F 102.5 °F 75.2 °F 59% 29.68 in 6.2 mi North 6.9 mph - N/A   Partly Cloudy
4:00 PM 92 °F - 75 °F 48% 29.70 in 6 mi North 10.4 mph - -   Scattered Clouds
4:00 PM 91.4 °F 102.5 °F 75.2 °F 59% 29.68 in 6.2 mi North 10.4 mph - N/A   Partly Cloudy
4:30 PM 91.4 °F 102.5 °F 75.2 °F 59% 29.68 in 6.2 mi North 6.9 mph - N/A   Partly Cloudy
5:00 PM 89.6 °F 99.8 °F 75.2 °F 62% 29.71 in 6.2 mi North 6.9 mph - N/A   Partly Cloudy
5:30 PM 89.6 °F 99.8 °F 75.2 °F 62% 29.71 in - North 6.9 mph - N/A   Partly Cloudy
6:00 PM 86.0 °F 96.9 °F 77.0 °F 74% 29.74 in 6.2 mi North 3.5 mph - N/A   Partly Cloudy
6:30 PM 86.0 °F 96.9 °F 77.0 °F 74% 29.74 in 4.3 mi North 3.5 mph - N/A   Partly Cloudy
7:00 PM 83 °F - 77 °F 78% 29.78 in 4 mi Calm Calm - -   Scattered Clouds
7:00 PM 84.2 °F 94.1 °F 77.0 °F 79% 29.74 in 3.7 mi Calm Calm - N/A   Partly Cloudy
7:30 PM 82.4 °F 90.9 °F 77.0 °F 84% 29.77 in 3.7 mi North 3.5 mph - N/A   Partly Cloudy
8:30 PM 82.4 °F 90.9 °F 77.0 °F 84% 29.77 in - Calm Calm - N/A   Partly Cloudy
9:00 PM 80.6 °F 87.1 °F 77.0 °F 89% 29.80 in 3.7 mi Calm Calm - N/A   Scattered Clouds
9:30 PM 80.6 °F 87.1 °F 77.0 °F 89% 29.83 in 3.7 mi Calm Calm - N/A   Scattered Clouds
10:00 PM 81 °F - 77 °F 84% 29.85 in 4 mi Calm Calm - -   Partly Cloudy
10:00 PM 80.6 °F 87.1 °F 77.0 °F 89% 29.83 in 3.7 mi Calm Calm - N/A   Scattered Clouds